DLH3KV EDDC-EDDF

Flight info

Callsign DLH3KV
Flight time 0h 42m
Altitude 30000
Route BEBEX7W BEBEX Q230 TADUV T178 ROBEL/N0376F240 T178 KERAX KERAX5A
Aircraft A321/M-SDE2E3FGIJ1LORWXYZ/HB1

Departure

Time 2026-04-18 08:49
Airport Dresden Airport (EDDC)

Arrival

Time 2026-04-18 09:31
Airport Frankfurt Main Airport (EDDF)
Time Latitude Longitude Altitude Speed Heading
2026-04-18 08:21 51.12632 13.76389 753 ft 0 kts 131°
2026-04-18 08:22 51.12634 13.76385 754 ft 0 kts 131°
2026-04-18 08:39 51.12649 13.76364 752 ft 4 kts 131°
2026-04-18 08:40 51.12658 13.76337 753 ft 4 kts 59°
2026-04-18 08:40 51.12645 13.76314 752 ft 4 kts 40°
2026-04-18 08:40 51.12633 13.76298 751 ft 1 kts 40°
2026-04-18 08:42 51.12643 13.76312 752 ft 4 kts 41°
2026-04-18 08:43 51.12670 13.76349 752 ft 7 kts 41°
2026-04-18 08:43 51.12712 13.76408 753 ft 9 kts 41°
2026-04-18 08:43 51.12769 13.76475 750 ft 9 kts 13°
2026-04-18 08:43 51.12810 13.76441 750 ft 7 kts 345°
2026-04-18 08:44 51.12857 13.76482 750 ft 9 kts 40°
2026-04-18 08:44 51.12916 13.76564 751 ft 13 kts 41°
2026-04-18 08:44 51.12991 13.76667 750 ft 16 kts 41°
2026-04-18 08:44 51.13082 13.76792 749 ft 19 kts 40°
2026-04-18 08:45 51.13188 13.76938 745 ft 18 kts 41°
2026-04-18 08:45 51.13256 13.76945 744 ft 8 kts 326°
2026-04-18 08:45 51.13303 13.76864 745 ft 12 kts 309°
2026-04-18 08:45 51.13370 13.76755 743 ft 15 kts 339°
2026-04-18 08:46 51.13465 13.76841 740 ft 19 kts 41°
2026-04-18 08:46 51.13583 13.77005 735 ft 26 kts 41°
2026-04-18 08:46 51.13731 13.77209 728 ft 29 kts 41°
2026-04-18 08:46 51.13885 13.77421 724 ft 30 kts 41°
2026-04-18 08:47 51.14041 13.77636 716 ft 30 kts 41°
2026-04-18 08:47 51.14175 13.77821 716 ft 24 kts 41°
2026-04-18 08:47 51.14303 13.77990 700 ft 24 kts 36°
2026-04-18 08:47 51.14386 13.78094 703 ft 7 kts 82°
2026-04-18 08:48 51.14373 13.78103 702 ft 2 kts 218°
2026-04-18 08:48 51.14351 13.78063 700 ft 7 kts 224°
2026-04-18 08:48 51.14235 13.77903 713 ft 56 kts 220°
2026-04-18 08:48 51.13739 13.77219 729 ft 130 kts 221°
2026-04-18 08:49 51.12930 13.76120 1046 ft 160 kts 219°
2026-04-18 08:49 51.12110 13.74941 1903 ft 159 kts 221°
2026-04-18 08:49 51.11261 13.73701 2383 ft 176 kts 220°
2026-04-18 08:49 51.10297 13.72310 2705 ft 198 kts 221°
2026-04-18 08:50 51.09236 13.70719 2981 ft 222 kts 229°
2026-04-18 08:50 51.08608 13.68354 3293 ft 249 kts 266°
2026-04-18 08:50 51.09027 13.65649 3881 ft 261 kts 303°
2026-04-18 08:50 51.10182 13.63400 4784 ft 263 kts 312°
2026-04-18 08:51 51.11417 13.61246 5724 ft 264 kts 313°
2026-04-18 08:51 51.12678 13.59102 6621 ft 267 kts 314°
2026-04-18 08:51 51.13952 13.56936 7464 ft 269 kts 314°
2026-04-18 08:51 51.15229 13.54754 8334 ft 270 kts 313°
2026-04-18 08:52 51.16507 13.52551 9212 ft 272 kts 313°
2026-04-18 08:52 51.17789 13.50326 10081 ft 273 kts 313°
2026-04-18 08:52 51.18969 13.47898 10580 ft 289 kts 297°
2026-04-18 08:52 51.19497 13.44687 10756 ft 314 kts 276°
2026-04-18 08:53 51.19643 13.41114 11096 ft 329 kts 274°
2026-04-18 08:53 51.19768 13.37431 11712 ft 335 kts 274°
2026-04-18 08:53 51.19887 13.33696 12387 ft 339 kts 274°
2026-04-18 08:53 51.20011 13.29924 13061 ft 343 kts 274°
2026-04-18 08:54 51.20139 13.26145 13722 ft 348 kts 274°
2026-04-18 08:54 51.20275 13.22277 14328 ft 352 kts 274°
2026-04-18 08:54 51.20415 13.18370 14960 ft 355 kts 274°
2026-04-18 08:54 51.20571 13.14425 15591 ft 358 kts 275°
2026-04-18 08:55 51.20765 13.10458 16224 ft 360 kts 276°
2026-04-18 08:55 51.20979 13.06462 16853 ft 363 kts 276°
2026-04-18 08:55 51.21200 13.02440 17470 ft 366 kts 276°
2026-04-18 08:55 51.21422 12.98384 18089 ft 369 kts 276°
2026-04-18 08:56 51.21638 12.94298 18662 ft 371 kts 276°
2026-04-18 08:56 51.21845 12.90177 19185 ft 374 kts 275°
2026-04-18 08:56 51.22045 12.86025 19693 ft 377 kts 275°
2026-04-18 08:56 51.22246 12.81839 20192 ft 380 kts 275°
2026-04-18 08:57 51.22659 12.73377 21174 ft 386 kts 276°
2026-04-18 08:57 51.22865 12.69099 21662 ft 389 kts 275°
2026-04-18 08:57 51.23069 12.64780 22131 ft 392 kts 275°
2026-04-18 08:58 51.23270 12.60436 22598 ft 395 kts 275°
2026-04-18 08:58 51.23470 12.56049 23064 ft 398 kts 275°
2026-04-18 08:58 51.23671 12.51637 23524 ft 401 kts 275°
2026-04-18 08:58 51.23871 12.47191 23946 ft 403 kts 275°
2026-04-18 08:59 51.24075 12.42715 24364 ft 405 kts 275°
2026-04-18 08:59 51.24280 12.38224 24796 ft 406 kts 275°
2026-04-18 08:59 51.24482 12.33715 25213 ft 408 kts 275°
2026-04-18 08:59 51.24684 12.29190 25626 ft 410 kts 275°
2026-04-18 09:00 51.24884 12.24650 26023 ft 412 kts 275°
2026-04-18 09:00 51.25086 12.20086 26153 ft 411 kts 275°
2026-04-18 09:00 51.25284 12.15572 26180 ft 406 kts 275°
2026-04-18 09:00 51.25475 12.11089 26179 ft 405 kts 275°
2026-04-18 09:01 51.25665 12.06604 26178 ft 404 kts 275°
2026-04-18 09:01 51.25852 12.02125 26176 ft 404 kts 275°
2026-04-18 09:01 51.26038 11.97640 26175 ft 404 kts 274°
2026-04-18 09:01 51.26222 11.93164 26176 ft 404 kts 274°
2026-04-18 09:02 51.26406 11.88678 26176 ft 405 kts 274°
2026-04-18 09:02 51.26589 11.84197 26177 ft 405 kts 274°
2026-04-18 09:02 51.26772 11.79715 26176 ft 405 kts 274°
2026-04-18 09:02 51.26954 11.75230 26176 ft 405 kts 274°
2026-04-18 09:03 51.27128 11.70744 26176 ft 405 kts 274°
2026-04-18 09:03 51.27300 11.66262 26176 ft 406 kts 274°
2026-04-18 09:03 51.27467 11.61737 26197 ft 410 kts 272°
2026-04-18 09:03 51.27315 11.57184 26205 ft 411 kts 262°
2026-04-18 09:04 51.26652 11.52749 26206 ft 411 kts 252°
2026-04-18 09:04 51.25499 11.48575 26205 ft 412 kts 243°
2026-04-18 09:04 51.24146 11.44556 26206 ft 411 kts 243°
2026-04-18 09:04 51.22799 11.40542 26207 ft 410 kts 243°
2026-04-18 09:05 51.21457 11.36536 26206 ft 409 kts 243°
2026-04-18 09:05 51.20119 11.32539 26203 ft 409 kts 243°
2026-04-18 09:05 51.18798 11.28602 26201 ft 408 kts 243°
2026-04-18 09:05 51.17458 11.24611 26203 ft 408 kts 243°
2026-04-18 09:06 51.16120 11.20633 26202 ft 407 kts 243°
2026-04-18 09:06 51.14780 11.16658 26202 ft 407 kts 243°
2026-04-18 09:06 51.13440 11.12679 26202 ft 407 kts 243°
2026-04-18 09:06 51.12093 11.08715 26201 ft 408 kts 241°
2026-04-18 09:07 51.10383 11.05108 26200 ft 410 kts 230°
2026-04-18 09:07 51.08467 11.01747 26199 ft 410 kts 230°
2026-04-18 09:07 51.06543 10.98397 26199 ft 410 kts 229°
2026-04-18 09:07 51.04615 10.95059 26186 ft 410 kts 229°
2026-04-18 09:08 51.02680 10.91724 26185 ft 410 kts 229°
2026-04-18 09:08 51.00744 10.88405 26180 ft 411 kts 229°
2026-04-18 09:08 50.98637 10.85406 25938 ft 405 kts 217°
2026-04-18 09:08 50.96288 10.82982 25381 ft 402 kts 214°
2026-04-18 09:09 50.93933 10.80628 24800 ft 399 kts 214°
2026-04-18 09:09 50.91596 10.78293 24242 ft 396 kts 214°
2026-04-18 09:09 50.89277 10.75972 23669 ft 393 kts 214°
2026-04-18 09:09 50.86969 10.73660 23033 ft 391 kts 214°
2026-04-18 09:10 50.84681 10.71368 22416 ft 387 kts 214°
2026-04-18 09:10 50.82413 10.69105 21839 ft 384 kts 214°
2026-04-18 09:10 50.80162 10.66869 21264 ft 380 kts 214°
2026-04-18 09:10 50.77932 10.64657 20713 ft 377 kts 214°
2026-04-18 09:11 50.75722 10.62466 20157 ft 374 kts 214°
2026-04-18 09:11 50.74266 10.61022 19886 ft 373 kts 214°
2026-04-18 09:11 50.72172 10.58654 19523 ft 368 kts 226°
2026-04-18 09:11 50.70527 10.55587 19173 ft 365 kts 234°
2026-04-18 09:12 50.68981 10.52421 18817 ft 363 kts 234°
2026-04-18 09:12 50.67448 10.49270 18461 ft 362 kts 234°
2026-04-18 09:12 50.65923 10.46133 18057 ft 359 kts 234°
2026-04-18 09:12 50.64409 10.43016 17655 ft 357 kts 234°
2026-04-18 09:13 50.62908 10.39921 17261 ft 354 kts 234°
2026-04-18 09:13 50.61420 10.36846 16868 ft 352 kts 234°
2026-04-18 09:13 50.59943 10.33789 16493 ft 349 kts 234°
2026-04-18 09:13 50.58480 10.30755 16103 ft 347 kts 234°
2026-04-18 09:14 50.57027 10.27741 15725 ft 345 kts 234°
2026-04-18 09:14 50.55586 10.24742 15355 ft 343 kts 234°
2026-04-18 09:14 50.54157 10.21757 14982 ft 341 kts 234°
2026-04-18 09:14 50.52742 10.18796 14619 ft 338 kts 234°
2026-04-18 09:15 50.51332 10.15836 14263 ft 337 kts 234°
2026-04-18 09:15 50.49933 10.12900 13901 ft 335 kts 234°
2026-04-18 09:15 50.48544 10.09976 13492 ft 333 kts 234°
2026-04-18 09:15 50.47165 10.07070 13096 ft 331 kts 234°
2026-04-18 09:16 50.45794 10.04172 12704 ft 330 kts 234°
2026-04-18 09:16 50.44434 10.01293 12311 ft 328 kts 234°
2026-04-18 09:16 50.43073 9.98424 11927 ft 327 kts 234°
2026-04-18 09:16 50.41719 9.95577 11558 ft 325 kts 234°
2026-04-18 09:17 50.40372 9.92745 11173 ft 323 kts 234°
2026-04-18 09:17 50.39036 9.89926 10802 ft 322 kts 234°
2026-04-18 09:17 50.37706 9.87118 10437 ft 320 kts 234°
2026-04-18 09:17 50.36416 9.84390 10131 ft 311 kts 234°
2026-04-18 09:18 50.35166 9.81748 10066 ft 293 kts 234°
2026-04-18 09:18 50.33985 9.79248 10012 ft 282 kts 234°
2026-04-18 09:18 50.32820 9.76782 9959 ft 281 kts 234°
2026-04-18 09:18 50.31660 9.74333 9906 ft 280 kts 234°
2026-04-18 09:19 50.30531 9.71862 9843 ft 279 kts 239°
2026-04-18 09:19 50.29720 9.69124 9687 ft 278 kts 251°
2026-04-18 09:19 50.29080 9.66279 9575 ft 277 kts 250°
2026-04-18 09:19 50.28439 9.63433 9448 ft 277 kts 250°
2026-04-18 09:20 50.27797 9.60598 9302 ft 277 kts 250°
2026-04-18 09:20 50.27151 9.57771 9180 ft 276 kts 250°
2026-04-18 09:20 50.26503 9.54954 9047 ft 275 kts 250°
2026-04-18 09:20 50.25854 9.52144 8914 ft 275 kts 250°
2026-04-18 09:21 50.25204 9.49337 8783 ft 274 kts 250°
2026-04-18 09:21 50.24556 9.46536 8654 ft 274 kts 250°
2026-04-18 09:21 50.23908 9.43739 8526 ft 274 kts 249°
2026-04-18 09:21 50.23261 9.40948 8396 ft 273 kts 250°
2026-04-18 09:22 50.22618 9.38158 8269 ft 272 kts 250°
2026-04-18 09:22 50.21980 9.35379 8145 ft 272 kts 250°
2026-04-18 09:22 50.21343 9.32605 8018 ft 271 kts 250°
2026-04-18 09:22 50.20706 9.29834 7889 ft 271 kts 249°
2026-04-18 09:23 50.20068 9.27064 7761 ft 271 kts 249°
2026-04-18 09:23 50.19432 9.24304 7634 ft 270 kts 249°
2026-04-18 09:23 50.18796 9.21554 7437 ft 269 kts 249°
2026-04-18 09:23 50.18163 9.18817 7078 ft 267 kts 249°
2026-04-18 09:24 50.17535 9.16108 6755 ft 264 kts 249°
2026-04-18 09:24 50.16908 9.13411 6550 ft 264 kts 249°
2026-04-18 09:24 50.16270 9.10725 6411 ft 264 kts 248°
2026-04-18 09:24 50.15632 9.08041 6213 ft 263 kts 248°
2026-04-18 09:25 50.15009 9.05374 5854 ft 261 kts 249°
2026-04-18 09:25 50.14389 9.02711 5503 ft 262 kts 249°
2026-04-18 09:25 50.13776 9.00083 5364 ft 252 kts 249°
2026-04-18 09:25 50.13197 8.97606 5237 ft 242 kts 249°
2026-04-18 09:26 50.12628 8.95175 5130 ft 230 kts 249°
2026-04-18 09:26 50.12087 8.92867 4907 ft 225 kts 249°
2026-04-18 09:26 50.11562 8.90629 4628 ft 220 kts 249°
2026-04-18 09:26 50.11042 8.88414 4327 ft 216 kts 250°
2026-04-18 09:27 50.10529 8.86233 4043 ft 211 kts 250°
2026-04-18 09:27 50.10031 8.84112 3766 ft 206 kts 250°
2026-04-18 09:27 50.09543 8.82042 3496 ft 201 kts 250°
2026-04-18 09:27 50.09065 8.80015 3252 ft 198 kts 251°
2026-04-18 09:28 50.08616 8.78047 3003 ft 189 kts 255°
2026-04-18 09:28 50.08151 8.76152 2754 ft 187 kts 248°
2026-04-18 09:28 50.07668 8.74291 2480 ft 185 kts 251°
2026-04-18 09:28 50.07292 8.72434 2197 ft 174 kts 258°
2026-04-18 09:29 50.07067 8.70634 1936 ft 164 kts 264°
2026-04-18 09:29 50.06872 8.68962 1768 ft 152 kts 256°
2026-04-18 09:29 50.06556 8.67429 1537 ft 146 kts 252°
2026-04-18 09:29 50.06225 8.65949 1347 ft 144 kts 251°
2026-04-18 09:30 50.05880 8.64507 1149 ft 141 kts 252°
2026-04-18 09:30 50.05552 8.63085 982 ft 139 kts 251°
2026-04-18 09:30 50.05208 8.61661 820 ft 143 kts 250°
2026-04-18 09:30 50.04868 8.60201 630 ft 145 kts 252°
2026-04-18 09:31 50.04523 8.58736 432 ft 143 kts 251°
2026-04-18 09:31 50.04195 8.57358 368 ft 117 kts 250°
2026-04-18 09:31 50.04018 8.56625 361 ft 42 kts 250°
2026-04-18 09:31 50.03998 8.56333 362 ft 23 kts 275°
2026-04-18 09:32 50.04014 8.56168 363 ft 6 kts 279°
2026-04-18 09:32 50.04017 8.56146 360 ft 1 kts 280°
2026-04-18 09:32 50.04020 8.56128 360 ft 2 kts 286°
2026-04-18 09:32 50.04022 8.56120 360 ft 0 kts 286°
2026-04-18 09:33 50.04023 8.56114 360 ft 2 kts 295°
2026-04-18 09:33 50.04051 8.56092 363 ft 7 kts 350°
2026-04-18 09:33 50.04102 8.56171 361 ft 14 kts 66°
2026-04-18 09:33 50.04140 8.56334 367 ft 18 kts 70°
2026-04-18 09:34 50.04186 8.56526 365 ft 16 kts 69°
2026-04-18 09:34 50.04249 8.56629 364 ft 14 kts 353°
2026-04-18 09:34 50.04304 8.56599 365 ft 0 kts 340°
2026-04-18 09:34 50.04305 8.56599 365 ft 0 kts 340°
2026-04-18 09:41 50.04306 8.56598 363 ft 1 kts 340°
2026-04-18 09:41 50.04320 8.56590 370 ft 4 kts 340°
2026-04-18 09:42 50.04363 8.56576 363 ft 9 kts
2026-04-18 09:42 50.04412 8.56663 368 ft 13 kts 69°
2026-04-18 09:42 50.04446 8.56809 369 ft 15 kts 71°
2026-04-18 09:42 50.04531 8.56884 363 ft 15 kts 13°
2026-04-18 09:43 50.04635 8.56924 363 ft 16 kts 18°
2026-04-18 09:43 50.04738 8.56994 363 ft 16 kts 24°
2026-04-18 09:43 50.04827 8.57059 366 ft 12 kts 29°
2026-04-18 09:43 50.04825 8.57139 365 ft 7 kts 109°
2026-04-18 09:44 50.04816 8.57174 367 ft 1 kts 114°
2026-04-18 09:44 50.04815 8.57176 366 ft 0 kts 114°